Regional Weather Roundup
Issued by NWS

Home | Current Version | Previous Version | Graphics & Text | Print | Product List | Glossary On
Versions: 1 2 3 4 5 6 7 8 9 10 11 12 13 14 15 16 17 18 19 20 21 22 23 24 25 26 27 28 29 30 31 32 33 34 35 36 37 38 39 40 41 42 43 44 45 46 47 48 49 50
237
ASUS44 KJAN 192110
RWRMS

MISSISSIPPI HOURLY WEATHER ROUNDUP
NATIONAL WEATHER SERVICE JACKSON MS
400 PM CDT SUN OCT 19 2014

NOTE: "FAIR: INDICATES FEW OR NO CLOUDS BELOW 12,000 FEET WITH NO
SIGNIFICANT WEATHER AND/OR OBSTRUCTIONS TO VISIBILITY.

MSZ001>002-007>008-010>013-018>021-025>028-034>036-192200-
NORTHWEST MISSISSIPPI

CITY           SKY/WX    TMP DP  RH WIND       PRES   REMARKS
CLARKSDALE     FAIR      68  46  45 N7        30.12F
CLEVELAND      FAIR      69  47  46 NE5       30.10F
GREENWOOD      SUNNY     72  48  42 N7        30.10F
GREENVILLE     SUNNY     71  43  36 NE6       30.11F
GRENADA          N/A    N/A N/A N/A MISG        N/A
OLIVE BRANCH   MOSUNNY   66  48  52 N5        30.13F
OXFORD         FAIR      66  46  48 N6        30.13F
TUNICA         CLEAR     68  45  42 NW5       30.13F
$$

MSZ003>006-009-014>017-022>024-029>033-037>039-192200-
NORTHEAST MISSISSIPPI

CITY           SKY/WX    TMP DP  RH WIND       PRES   REMARKS
COLUMBUS AFB   SUNNY     70  46  42 VRB2      30.10F
CORINTH        FAIR      66  45  45 CALM        N/A
TUPELO         SUNNY     68  46  45 NE8       30.11F
$$

MSZ040-058-192200-
CENTRAL MISSISSIPPI

CITY           SKY/WX    TMP DP  RH WIND       PRES   REMARKS
JACKSON INTL   MOSUNNY   72  44  36 VRB6      30.09F
JACKSON HAWKNS SUNNY     73  43  33 E6        30.09F
MERIDIAN KEY   SUNNY     72  43  35 E5        30.08F
MERIDIAN NAS   SUNNY     72  45  37 CALM      30.08F
RAYMOND        FAIR      73  68  83 N5        30.09S
VICKSBURG      SUNNY     73  44  35 NE6       30.09F
$$

MSZ059>079-192200-
SOUTH MISSISSIPPI

CITY           SKY/WX    TMP DP  RH WIND       PRES   REMARKS
BROOKHAVEN     FAIR      72  46  40 N7        30.09F
COLUMBIA         N/A    N/A N/A N/A MISG        N/A
HATTIESBURG    SUNNY     75  46  35 N7        30.07F
MCCOMB         SUNNY     74  43  32 N5        30.07F
NATCHEZ        SUNNY     72  48  43 E5        30.09F
PINE BELT      SUNNY     73  43  33 CALM      30.09F
$$

MSZ080>082-192200-
COASTAL MISSISSIPPI

CITY           SKY/WX    TMP DP  RH WIND       PRES   REMARKS
BAY ST LOUIS   SUNNY     75  48  38 CALM      30.05F
BILOXI         SUNNY     74  53  46 S7        30.05F
PASCAGOULA     SUNNY     76  46  34 CALM      30.04F
GULFPORT       SUNNY     74  52  46 SE3       30.04F
$$



USA.gov is the U.S. government's official web portal to all federal, state and local government web resources and services.